Regional Weather Roundup
Issued by NWS

Home | Current Version | Previous Version | Graphics & Text | Print | Product List | Glossary On
Versions: 1 2 3 4 5 6 7 8 9 10 11 12 13 14 15 16 17 18 19 20 21 22 23 24 25 26 27 28 29 30 31 32 33 34 35 36 37 38 39 40 41 42 43 44 45 46 47 48 49 50
000
ASUS43 KLMK 240202
RWRKY
KENTUCKY REGIONAL WEATHER ROUNDUP
NATIONAL WEATHER SERVICE LOUISVILLE KY
1000 PM EDT SAT MAY 23 2015

NOTE "FAIR" INDICATES FEW OR NO CLOUDS BELOW 12,000 FEET
WITH NO SIGNIFICANT WEATHER AND/OR OBSTRUCTIONS TO VISIBILITY.

KYZ001>023-026-027-061>063-070>075-240300-
WESTERN AND SOUTH CENTRAL KENTUCKY

CITY           SKY/WX    TMP DP  RH WIND       PRES   REMARKS
PADUCAH        PTCLDY    69  53  56 SE3       30.18S
HENDERSON      PTCLDY    70  50  49 SE3       30.20R
OWENSBORO      PTCLDY    70  54  56 SE6       30.22S
HOPKINSVILLE   CLEAR     71  56  57 E5        30.21S
BOWLING GREEN  MOCLDY    69  53  56 CALM      30.24S
GLASGOW        NOT AVBL
$$

KYZ024-025-028>034-038-045-046-053-240300-
NORTH CENTRAL KENTUCKY

CITY           SKY/WX    TMP DP  RH WIND       PRES   REMARKS
LOUISVILLE/SDF MOCLDY    73  48  41 E6        30.24R
LOUISVILLE/LOU PTCLDY    71  49  45 CALM      30.25S
FORT KNOX      MOCLDY    63  52  67 CALM      30.23S
$$

KYZ035>037-039>044-047>052-055>060-089>105-240300-
NORTHEAST KENTUCKY

CITY           SKY/WX    TMP DP  RH WIND       PRES   REMARKS
LEXINGTON      CLEAR     70  46  42 E3        30.28S
COVINGTON      PTCLDY    67  45  45 E3        30.28R
FRANKFORT      PTCLDY    63  50  62 CALM      30.27R
$$

KYZ054-064>069-076>088-106>120-240300-
SOUTHEAST KENTUCKY

CITY           SKY/WX    TMP DP  RH WIND       PRES   REMARKS
JACKSON        CLEAR     67  48  50 CALM      30.31R
LONDON         CLEAR     66  52  60 CALM      30.30R
SOMERSET       NOT AVBL
MIDDLESBORO    PTCLDY    65  55  70 CALM      30.31R
MONTICELLO     PTCLDY    63  55  75 CALM      30.30S
$$




USA.gov is the U.S. government's official web portal to all federal, state and local government web resources and services.